Location: *
(32.3758°S, 63.1185°E)
Time: 23:26:10
(UTC+00:00)

CBERS 1 LM4 rocket - Pass Details

Date: 02 June 2023
Orbit: 700 x 838 km, 98.8° (Epoch: 03 October)

Event Time Altitude Azimuth Distance (km) Brightness Sun altitude
Exits shadow 14:19:07 11° 166° (SSE) 2,197 6.6 -18.5°
Maximum altitude 14:23:56 86° 77° (ENE) 754 4.3 -19.4°
Drops below altitude 10° 14:28:59 10° 347° (NNW) 2,292 7.3 -20.5°
Sets 14:31:19 0° 347° (NNW) 3,232 8.1 -20.9°
